Portland, OR

6:01 PM PDT on August 19, 2017 (GMT -0700)
Portland International

Weather History for KPDX - November, 2012

Change the Weather History Date:

Thursday, November 29, 2012

  Actual Average Record
Temperature  
Mean Temperature 44 °F 43 °F  
Max Temperature 46 °F 49 °F 58 °F (2008)
Min Temperature 42 °F 38 °F 21 °F (1985)
Degree Days  
Heating Degree Days 21 22  
Month to date heating degree days 469 528  
Since 1 July heating degree days 797 946  
Cooling Degree Days 0 0  
Month to date cooling degree days 0 0  
Year to date cooling degree days 436 424  
Moisture  
Dew Point 39 °F    
Average Humidity 85    
Maximum Humidity 100    
Minimum Humidity 70    
Precipitation  
Precipitation 0.29 in 0.21 in 0.67 in (1942)
Month to date precipitation 7.69 5.42  
Year to date precipitation 42.34 30.33  
Snow  
Snow 0.00 in - - ()
Month to date snowfall 0.0  
Snow Depth 0.00 in    
Sea Level Pressure  
Sea Level Pressure 29.61 in    
Wind  
Wind Speed 14 mph (ESE)    
Max Wind Speed 24 mph    
Max Gust Speed 29 mph    
Visibility 10 miles    
Events Rain    
T = Trace of Precipitation, MM = Missing Value Source: NWS Daily Summary

Daily Weather History Graph

Daily Weather History Graph

Search for Another Location

Airport or City:

Trip Planner

Search our weather history database for the weather conditions in past years. The results will help you decide how hot, cold, wet, or windy it might be!

Date:

Astronomy

Nov. 29, 2012 Rise Set
Actual Time 7:28 AM PST 4:28 PM PST
Civil Twilight 6:55 AM PST 5:02 PM PST
Nautical Twilight 6:18 AM PST 5:39 PM PST
Astronomical Twilight 5:42 AM PST 6:14 PM PST
Moon 5:36 PM PST (11/29) 8:20 AM PST (11/29)
Length of Visible Light 10h 07m
Length of Day
9h 00m
Full, 99% of the Moon is Illuminated
Nov 29
Full
Dec 6
Last Quarter
Dec 13
New
Dec 19
First Quarter
Dec 28
Full

Hourly Weather History & Observations

Time (PST) Temp. Windchill Dew Point Humidity Pressure Visibility Wind Dir Wind Speed Gust Speed Precip Events Conditions
12:53 AM 42.1 °F 37.7 °F 36.0 °F 79% 29.69 in 10.0 mi ESE 6.9 mph - N/A   Overcast
1:53 AM 42.1 °F 37.7 °F 35.1 °F 76% 29.68 in 10.0 mi ESE 6.9 mph - N/A   Overcast
2:53 AM 43.0 °F 37.7 °F 35.1 °F 74% 29.66 in 10.0 mi ESE 9.2 mph - N/A   Overcast
3:53 AM 42.8 °F 36.6 °F 35.6 °F 76% 29.62 in 10.0 mi ESE 11.5 mph - N/A   Mostly Cloudy
4:53 AM 44.1 °F 36.5 °F 36.0 °F 73% 29.59 in 10.0 mi ESE 17.3 mph 25.3 mph N/A   Overcast
5:53 AM 43.0 °F 34.2 °F 36.0 °F 76% 29.59 in 10.0 mi ESE 20.7 mph 27.6 mph 0.00 in Rain Light Rain
6:53 AM 44.1 °F 37.1 °F 37.0 °F 76% 29.58 in 10.0 mi ESE 15.0 mph - 0.00 in   Overcast
7:53 AM 42.8 °F 33.8 °F 37.4 °F 81% 29.64 in 10.0 mi ESE 21.9 mph 28.8 mph N/A Rain Light Rain
8:53 AM 44.1 °F 37.7 °F 41.0 °F 89% 29.66 in 10.0 mi ESE 12.7 mph - 0.06 in Rain Light Rain
9:53 AM 44.1 °F 37.7 °F 42.1 °F 93% 29.68 in 10.0 mi East 12.7 mph - 0.01 in   Overcast
10:53 AM 43.0 °F 34.8 °F 39.9 °F 89% 29.68 in 10.0 mi ESE 18.4 mph - N/A   Mostly Cloudy
11:53 AM 44.1 °F 36.8 °F 39.0 °F 82% 29.67 in 10.0 mi SE 16.1 mph - N/A   Overcast
12:53 PM 45.0 °F 37.6 °F 39.0 °F 80% 29.64 in 10.0 mi ESE 17.3 mph - N/A   Overcast
1:53 PM 45.0 °F 38.5 °F 39.0 °F 80% 29.63 in 10.0 mi ESE 13.8 mph - N/A   Overcast
2:53 PM 44.1 °F 37.4 °F 39.0 °F 82% 29.61 in 10.0 mi ESE 13.8 mph - 0.00 in Rain Light Rain
3:53 PM 44.1 °F 37.7 °F 39.9 °F 85% 29.60 in 9.0 mi ESE 12.7 mph - 0.03 in Rain Light Rain
4:53 PM 43.0 °F 36.0 °F 41.0 °F 93% 29.60 in 9.0 mi ESE 13.8 mph - 0.02 in Rain Light Rain
5:53 PM 43.0 °F 37.2 °F 41.0 °F 93% 29.57 in 10.0 mi ESE 10.4 mph - 0.03 in Rain Light Rain
6:53 PM 43.0 °F 37.7 °F 39.9 °F 89% 29.55 in 10.0 mi ESE 9.2 mph - 0.00 in   Overcast
7:53 PM 44.1 °F 36.8 °F 39.9 °F 85% 29.53 in 10.0 mi ESE 16.1 mph - 0.00 in Rain Light Rain
8:53 PM 44.1 °F 39.0 °F 41.0 °F 89% 29.54 in 7.0 mi ESE 9.2 mph - 0.05 in Rain Rain
9:53 PM 43.0 °F 35.7 °F 42.1 °F 97% 29.53 in 10.0 mi ESE 15.0 mph - 0.07 in Rain Light Rain
10:53 PM 44.1 °F 37.7 °F 41.0 °F 89% 29.50 in 10.0 mi ESE 12.7 mph - 0.01 in   Overcast
11:53 PM 44.1 °F 37.7 °F 39.9 °F 85% 29.49 in 10.0 mi ESE 12.7 mph - N/A   Overcast